Flag for Malta Weather past 2 weeks in Valletta, Malta

52 °F

Passing clouds.

Feels Like: 47 °F
Forecast: 60 / 64 °F
Wind: 16 mph from Northwest

Location: Luqa

Current Time: Nov 27, 2015 at 6:22:42 AM

Latest Report: Nov 27, 2015 at 5:45 AM

Visibility: N/A

Pressure: 29.59 "Hg

Humidity: 77%

Dew point: 45 °F

Location of VallettaLocation

Historic Weather in Valletta — Graph


Valletta temperature yesterday

Maximum temperature yesterday: 61 °F (at 1:45 AM)
Minimum temperature yesterday: 54 °F (at 7:45 PM)
Average temperature yesterday: 58 °F

Past Weeks' High & Low Weather Summary

High73 °F (Nov 15, 12:15 PM)100% (Nov 12, 4:45 AM)30.33 "Hg (Nov 12, 4:45 AM)
Low54 °F (Nov 26, 7:45 PM)52% (Nov 26, 2:15 AM)29.47 "Hg (Nov 26, 2:45 PM)
Average64 °F76%30.03 "Hg
* Reported Nov 12 4:45 AM — Nov 27 4:15 AM, Valletta, Weather by CustomWeather, © 2015

Note: Actual official high and low records may vary slightly from our data, if they occured in-between our weather recording intervals... More about our weather records


Valletta weather history for previous 24 hours

Time TempWeatherWind HumidityBarometerVisibility
4:15 AM
Fri, Nov 27
55 °FPassing clouds.18 mph67%29.56 "HgN/A
3:45 AM54 °FPassing clouds.20 mph72%29.56 "HgN/A
3:15 AM54 °FPartly cloudy.18 mph77%29.56 "HgN/A
2:45 AM54 °FSprinkles. Partly cloudy.17 mph77%29.56 "HgN/A
2:15 AM54 °FPassing clouds.22 mph77%29.56 "HgN/A
1:45 AM55 °FPassing clouds.20 mph67%29.56 "HgN/A
1:15 AM55 °FPassing clouds.20 mph67%29.56 "HgN/A
12:45 AM54 °FClear.17 mph77%29.56 "Hg10 mi
12:15 AM54 °FClear.18 mph72%29.56 "Hg10 mi
11:45 PM
Thu, Nov 26
55 °FPassing clouds.21 mph67%29.56 "HgN/A
11:15 PM55 °FPassing clouds.21 mph72%29.56 "HgN/A
10:45 PM54 °FPassing clouds.20 mph77%29.56 "HgN/A
9:45 PM54 °FPassing clouds.22 mph72%29.53 "HgN/A
9:15 PM54 °FPassing clouds.23 mph77%29.53 "HgN/A
8:45 PM54 °FPassing clouds.21 mph77%29.53 "HgN/A
8:15 PM54 °FPassing clouds.24 mph77%29.53 "Hg6 mi
7:45 PM54 °FRain showers. Passing clouds.22 mph77%29.53 "Hg4 mi
7:15 PM57 °FPassing clouds.26 mph59%29.53 "HgN/A
6:45 PM55 °FPassing clouds.24 mph63%29.50 "HgN/A
6:15 PM57 °FPassing clouds.35 mph59%29.50 "HgN/A
5:45 PM59 °FPassing clouds.32 mph55%29.47 "HgN/A
5:15 PM57 °FPassing clouds.26 mph67%29.47 "HgN/A
4:45 PM57 °FScattered clouds.26 mph72%29.47 "HgN/A
4:15 PM59 °FScattered clouds.25 mph63%29.50 "HgN/A
3:45 PM59 °FScattered clouds.28 mph68%29.50 "HgN/A
3:15 PM59 °FScattered clouds.22 mph72%29.47 "HgN/A
2:45 PM61 °FPartly sunny.24 mph68%29.47 "HgN/A
2:15 PM57 °FScattered clouds.18 mph77%29.50 "HgN/A
1:45 PM55 °FScattered clouds.20 mph82%29.50 "HgN/A
1:15 PM59 °FRain showers. Scattered clouds.29 mph72%29.50 "HgN/A
12:45 PM61 °FScattered clouds.29 mph68%29.50 "HgN/A
12:15 PM61 °FPartly sunny.26 mph72%29.53 "HgN/A
11:45 AM59 °FScattered clouds.24 mph77%29.53 "HgN/A
11:15 AM57 °FPartly sunny.20 mph82%29.56 "HgN/A
10:45 AM61 °FRain showers. Partly sunny.25 mph72%29.56 "Hg4 mi
10:15 AM61 °FScattered clouds.23 mph68%29.56 "HgN/A
9:45 AM61 °FScattered clouds.23 mph63%29.56 "HgN/A
9:15 AM61 °FSprinkles. Partly sunny.21 mph63%29.56 "HgN/A
8:45 AM61 °FPartly sunny.22 mph59%29.59 "HgN/A
8:15 AM59 °FScattered clouds.21 mph63%29.59 "HgN/A
7:45 AM59 °FPassing clouds.22 mph59%29.59 "HgN/A
7:15 AM59 °FPassing clouds.18 mph55%29.59 "HgN/A
6:45 AM61 °FPassing clouds.21 mph52%29.62 "HgN/A
6:15 AM61 °FPassing clouds.21 mph55%29.62 "HgN/A
Weather by CustomWeather, © 2015

See weather overviewHow to use our weather pages